Simultaneous Nadir Overpasses (SNOs) Predictions

Prediction of SNOs between GOES-15 and METOP-A Satellite Orbit:

Table of predicted SNOs for the next 14.0 days since TLE Epoch: 1/25/2014
Index Date Time (GOES-15) GOES-15 Lat,Lon METOP-A Lat,Lon Distance(km) Time Diff (sec)
1 01/25/2014 18:17:47 0.01,-135.28 -0.62,-132.59 307.20 80
2 01/27/2014 06:39:26 -0.02,-135.28 -0.47,-137.17 216.52 80
3 01/28/2014 06:16:06 -0.01,-135.29 0.68,-132.19 353.70 80
4 01/29/2014 18:37:36 0.03,-135.33 0.35,-136.74 161.17 80
5 01/30/2014 18:14:16 0.02,-135.34 -0.75,-131.74 408.99 80
6 02/01/2014 06:35:55 -0.04,-135.33 -0.28,-136.34 115.49 80
7 02/02/2014 06:12:36 -0.03,-135.33 0.88,-131.35 454.37 80
8 02/03/2014 18:34:06 0.05,-135.37 0.14,-135.91 61.24 80
9 02/06/2014 06:32:25 -0.05,-135.35 -0.06,-135.50 16.79 80




NCC Satellite Simultaneous Nadir Overpasses (SNOs) Prediction Service
